Index of /20260506/WXO-DD/model_rdps/10km/00/046
Name Last modified Size Description
Parent Directory -
20260506T00Z_MSC_RDPS_AbsoluteVorticity_IsbL-0250_RLatLon0.09_PT046H.grib2 2026-05-06 02:53 591K
20260506T00Z_MSC_RDPS_AbsoluteVorticity_IsbL-0500_RLatLon0.09_PT046H.grib2 2026-05-06 02:53 557K
20260506T00Z_MSC_RDPS_AbsoluteVorticity_IsbL-0700_RLatLon0.09_PT046H.grib2 2026-05-06 02:53 622K
20260506T00Z_MSC_RDPS_AbsoluteVorticity_IsbL-0850_RLatLon0.09_PT046H.grib2 2026-05-06 02:53 778K
20260506T00Z_MSC_RDPS_AirTemp_AGL-120m_RLatLon0.09_PT046H.grib2 2026-05-06 02:53 375K
20260506T00Z_MSC_RDPS_AirTemp_AGL-2m_RLatLon0.09_PT046H.grib2 2026-05-06 02:53 627K
20260506T00Z_MSC_RDPS_AirTemp_AGL-40m_RLatLon0.09_PT046H.grib2 2026-05-06 02:53 385K
20260506T00Z_MSC_RDPS_AirTemp_AGL-80m_RLatLon0.09_PT046H.grib2 2026-05-06 02:53 379K
20260506T00Z_MSC_RDPS_AirTemp_IsbL-0001_RLatLon0.09_PT046H.grib2 2026-05-06 02:53 314K
20260506T00Z_MSC_RDPS_AirTemp_IsbL-0005_RLatLon0.09_PT046H.grib2 2026-05-06 02:53 289K
20260506T00Z_MSC_RDPS_AirTemp_IsbL-0010_RLatLon0.09_PT046H.grib2 2026-05-06 02:53 393K
20260506T00Z_MSC_RDPS_AirTemp_IsbL-0020_RLatLon0.09_PT046H.grib2 2026-05-06 02:53 321K
20260506T00Z_MSC_RDPS_AirTemp_IsbL-0030_RLatLon0.09_PT046H.grib2 2026-05-06 02:53 338K
20260506T00Z_MSC_RDPS_AirTemp_IsbL-0050_RLatLon0.09_PT046H.grib2 2026-05-06 02:53 311K
20260506T00Z_MSC_RDPS_AirTemp_IsbL-0100_RLatLon0.09_PT046H.grib2 2026-05-06 02:53 420K
20260506T00Z_MSC_RDPS_AirTemp_IsbL-0150_RLatLon0.09_PT046H.grib2 2026-05-06 02:53 410K
20260506T00Z_MSC_RDPS_AirTemp_IsbL-0175_RLatLon0.09_PT046H.grib2 2026-05-06 02:53 403K
20260506T00Z_MSC_RDPS_AirTemp_IsbL-0200_RLatLon0.09_PT046H.grib2 2026-05-06 02:53 409K
20260506T00Z_MSC_RDPS_AirTemp_IsbL-0225_RLatLon0.09_PT046H.grib2 2026-05-06 02:53 411K
20260506T00Z_MSC_RDPS_AirTemp_IsbL-0250_RLatLon0.09_PT046H.grib2 2026-05-06 02:53 417K
20260506T00Z_MSC_RDPS_AirTemp_IsbL-0275_RLatLon0.09_PT046H.grib2 2026-05-06 02:53 397K
20260506T00Z_MSC_RDPS_AirTemp_IsbL-0300_RLatLon0.09_PT046H.grib2 2026-05-06 02:53 405K
20260506T00Z_MSC_RDPS_AirTemp_IsbL-0350_RLatLon0.09_PT046H.grib2 2026-05-06 02:53 418K
20260506T00Z_MSC_RDPS_AirTemp_IsbL-0400_RLatLon0.09_PT046H.grib2 2026-05-06 02:53 420K
20260506T00Z_MSC_RDPS_AirTemp_IsbL-0450_RLatLon0.09_PT046H.grib2 2026-05-06 02:53 430K
20260506T00Z_MSC_RDPS_AirTemp_IsbL-0500_RLatLon0.09_PT046H.grib2 2026-05-06 02:53 408K
20260506T00Z_MSC_RDPS_AirTemp_IsbL-0550_RLatLon0.09_PT046H.grib2 2026-05-06 02:53 424K
20260506T00Z_MSC_RDPS_AirTemp_IsbL-0600_RLatLon0.09_PT046H.grib2 2026-05-06 02:53 443K
20260506T00Z_MSC_RDPS_AirTemp_IsbL-0650_RLatLon0.09_PT046H.grib2 2026-05-06 02:53 459K
20260506T00Z_MSC_RDPS_AirTemp_IsbL-0700_RLatLon0.09_PT046H.grib2 2026-05-06 02:53 487K
20260506T00Z_MSC_RDPS_AirTemp_IsbL-0750_RLatLon0.09_PT046H.grib2 2026-05-06 02:53 523K
20260506T00Z_MSC_RDPS_AirTemp_IsbL-0800_RLatLon0.09_PT046H.grib2 2026-05-06 02:53 450K
20260506T00Z_MSC_RDPS_AirTemp_IsbL-0850_RLatLon0.09_PT046H.grib2 2026-05-06 02:53 498K
20260506T00Z_MSC_RDPS_AirTemp_IsbL-0875_RLatLon0.09_PT046H.grib2 2026-05-06 02:53 519K
20260506T00Z_MSC_RDPS_AirTemp_IsbL-0900_RLatLon0.09_PT046H.grib2 2026-05-06 02:53 530K
20260506T00Z_MSC_RDPS_AirTemp_IsbL-0925_RLatLon0.09_PT046H.grib2 2026-05-06 02:53 533K
20260506T00Z_MSC_RDPS_AirTemp_IsbL-0950_RLatLon0.09_PT046H.grib2 2026-05-06 02:53 528K
20260506T00Z_MSC_RDPS_AirTemp_IsbL-0970_RLatLon0.09_PT046H.grib2 2026-05-06 02:53 522K
20260506T00Z_MSC_RDPS_AirTemp_IsbL-0985_RLatLon0.09_PT046H.grib2 2026-05-06 02:53 511K
20260506T00Z_MSC_RDPS_AirTemp_IsbL-1000_RLatLon0.09_PT046H.grib2 2026-05-06 02:53 512K
20260506T00Z_MSC_RDPS_AirTemp_IsbL-1015_RLatLon0.09_PT046H.grib2 2026-05-06 02:53 511K
20260506T00Z_MSC_RDPS_Albedo_Sfc_RLatLon0.09_PT046H.grib2 2026-05-06 02:53 155K
20260506T00Z_MSC_RDPS_CAPE_Sfc_RLatLon0.09_PT046H.grib2 2026-05-06 02:53 1.8M
20260506T00Z_MSC_RDPS_CIN_Sfc_RLatLon0.09_PT046H.grib2 2026-05-06 02:53 1.4M
20260506T00Z_MSC_RDPS_CloudWater_EAtm_RLatLon0.09_PT046H.grib2 2026-05-06 02:53 227K
20260506T00Z_MSC_RDPS_ConvectivePrecip-Accum_Sfc_RLatLon0.09_PT046H.grib2 2026-05-06 02:53 1.0M
20260506T00Z_MSC_RDPS_DewPointDepression_AGL-2m_RLatLon0.09_PT046H.grib2 2026-05-06 02:53 425K
20260506T00Z_MSC_RDPS_DewPointDepression_IsbL-0001_RLatLon0.09_PT046H.grib2 2026-05-06 02:53 193
20260506T00Z_MSC_RDPS_DewPointDepression_IsbL-0005_RLatLon0.09_PT046H.grib2 2026-05-06 02:53 193
20260506T00Z_MSC_RDPS_DewPointDepression_IsbL-0010_RLatLon0.09_PT046H.grib2 2026-05-06 02:53 193
20260506T00Z_MSC_RDPS_DewPointDepression_IsbL-0020_RLatLon0.09_PT046H.grib2 2026-05-06 02:53 193
20260506T00Z_MSC_RDPS_DewPointDepression_IsbL-0030_RLatLon0.09_PT046H.grib2 2026-05-06 02:53 193
20260506T00Z_MSC_RDPS_DewPointDepression_IsbL-0050_RLatLon0.09_PT046H.grib2 2026-05-06 02:53 81K
20260506T00Z_MSC_RDPS_DewPointDepression_IsbL-0100_RLatLon0.09_PT046H.grib2 2026-05-06 02:53 113K
20260506T00Z_MSC_RDPS_DewPointDepression_IsbL-0150_RLatLon0.09_PT046H.grib2 2026-05-06 02:53 142K
20260506T00Z_MSC_RDPS_DewPointDepression_IsbL-0175_RLatLon0.09_PT046H.grib2 2026-05-06 02:53 177K
20260506T00Z_MSC_RDPS_DewPointDepression_IsbL-0200_RLatLon0.09_PT046H.grib2 2026-05-06 02:53 216K
20260506T00Z_MSC_RDPS_DewPointDepression_IsbL-0225_RLatLon0.09_PT046H.grib2 2026-05-06 02:53 248K
20260506T00Z_MSC_RDPS_DewPointDepression_IsbL-0250_RLatLon0.09_PT046H.grib2 2026-05-06 02:53 296K
20260506T00Z_MSC_RDPS_DewPointDepression_IsbL-0275_RLatLon0.09_PT046H.grib2 2026-05-06 02:53 307K
20260506T00Z_MSC_RDPS_DewPointDepression_IsbL-0300_RLatLon0.09_PT046H.grib2 2026-05-06 02:53 325K
20260506T00Z_MSC_RDPS_DewPointDepression_IsbL-0350_RLatLon0.09_PT046H.grib2 2026-05-06 02:53 331K
20260506T00Z_MSC_RDPS_DewPointDepression_IsbL-0400_RLatLon0.09_PT046H.grib2 2026-05-06 02:53 340K
20260506T00Z_MSC_RDPS_DewPointDepression_IsbL-0450_RLatLon0.09_PT046H.grib2 2026-05-06 02:53 345K
20260506T00Z_MSC_RDPS_DewPointDepression_IsbL-0500_RLatLon0.09_PT046H.grib2 2026-05-06 02:53 355K
20260506T00Z_MSC_RDPS_DewPointDepression_IsbL-0550_RLatLon0.09_PT046H.grib2 2026-05-06 02:53 368K
20260506T00Z_MSC_RDPS_DewPointDepression_IsbL-0600_RLatLon0.09_PT046H.grib2 2026-05-06 02:53 379K
20260506T00Z_MSC_RDPS_DewPointDepression_IsbL-0650_RLatLon0.09_PT046H.grib2 2026-05-06 02:53 383K
20260506T00Z_MSC_RDPS_DewPointDepression_IsbL-0700_RLatLon0.09_PT046H.grib2 2026-05-06 02:53 398K
20260506T00Z_MSC_RDPS_DewPointDepression_IsbL-0750_RLatLon0.09_PT046H.grib2 2026-05-06 02:53 423K
20260506T00Z_MSC_RDPS_DewPointDepression_IsbL-0800_RLatLon0.09_PT046H.grib2 2026-05-06 02:53 457K
20260506T00Z_MSC_RDPS_DewPointDepression_IsbL-0850_RLatLon0.09_PT046H.grib2 2026-05-06 02:53 487K
20260506T00Z_MSC_RDPS_DewPointDepression_IsbL-0875_RLatLon0.09_PT046H.grib2 2026-05-06 02:53 484K
20260506T00Z_MSC_RDPS_DewPointDepression_IsbL-0900_RLatLon0.09_PT046H.grib2 2026-05-06 02:53 476K
20260506T00Z_MSC_RDPS_DewPointDepression_IsbL-0925_RLatLon0.09_PT046H.grib2 2026-05-06 02:53 465K
20260506T00Z_MSC_RDPS_DewPointDepression_IsbL-0950_RLatLon0.09_PT046H.grib2 2026-05-06 02:53 450K
20260506T00Z_MSC_RDPS_DewPointDepression_IsbL-0970_RLatLon0.09_PT046H.grib2 2026-05-06 02:53 440K
20260506T00Z_MSC_RDPS_DewPointDepression_IsbL-0985_RLatLon0.09_PT046H.grib2 2026-05-06 02:53 437K
20260506T00Z_MSC_RDPS_DewPointDepression_IsbL-1000_RLatLon0.09_PT046H.grib2 2026-05-06 02:53 434K
20260506T00Z_MSC_RDPS_DewPointDepression_IsbL-1015_RLatLon0.09_PT046H.grib2 2026-05-06 02:53 423K
20260506T00Z_MSC_RDPS_DewPoint_AGL-2m_RLatLon0.09_PT046H.grib2 2026-05-06 02:53 402K
20260506T00Z_MSC_RDPS_DownwardLongwaveRadiationFlux-Accum_Sfc_RLatLon0.09_PT046H.grib2 2026-05-06 02:53 369K
20260506T00Z_MSC_RDPS_DownwardShortwaveRadiationFlux-Accum_NTAtm_RLatLon0.09_PT046H.grib2 2026-05-06 02:53 118K
20260506T00Z_MSC_RDPS_DownwardShortwaveRadiationFlux-Accum_Sfc_RLatLon0.09_PT046H.grib2 2026-05-06 02:53 563K
20260506T00Z_MSC_RDPS_FreezingRain-Accum1h_Sfc_RLatLon0.09_PT046H.grib2 2026-05-06 02:53 23K
20260506T00Z_MSC_RDPS_FreezingRain-Accum_Sfc_RLatLon0.09_PT046H.grib2 2026-05-06 02:53 174K
20260506T00Z_MSC_RDPS_GeopotentialHeight_IsbL-0001_RLatLon0.09_PT046H.grib2 2026-05-06 02:53 345K
20260506T00Z_MSC_RDPS_GeopotentialHeight_IsbL-0005_RLatLon0.09_PT046H.grib2 2026-05-06 02:53 304K
20260506T00Z_MSC_RDPS_GeopotentialHeight_IsbL-0010_RLatLon0.09_PT046H.grib2 2026-05-06 02:53 339K
20260506T00Z_MSC_RDPS_GeopotentialHeight_IsbL-0020_RLatLon0.09_PT046H.grib2 2026-05-06 02:53 305K
20260506T00Z_MSC_RDPS_GeopotentialHeight_IsbL-0030_RLatLon0.09_PT046H.grib2 2026-05-06 02:53 308K
20260506T00Z_MSC_RDPS_GeopotentialHeight_IsbL-0050_RLatLon0.09_PT046H.grib2 2026-05-06 02:53 307K
20260506T00Z_MSC_RDPS_GeopotentialHeight_IsbL-0100_RLatLon0.09_PT046H.grib2 2026-05-06 02:53 285K
20260506T00Z_MSC_RDPS_GeopotentialHeight_IsbL-0150_RLatLon0.09_PT046H.grib2 2026-05-06 02:53 228K
20260506T00Z_MSC_RDPS_GeopotentialHeight_IsbL-0175_RLatLon0.09_PT046H.grib2 2026-05-06 02:53 230K
20260506T00Z_MSC_RDPS_GeopotentialHeight_IsbL-0200_RLatLon0.09_PT046H.grib2 2026-05-06 02:53 265K
20260506T00Z_MSC_RDPS_GeopotentialHeight_IsbL-0225_RLatLon0.09_PT046H.grib2 2026-05-06 02:53 267K
20260506T00Z_MSC_RDPS_GeopotentialHeight_IsbL-0250_RLatLon0.09_PT046H.grib2 2026-05-06 02:53 267K
20260506T00Z_MSC_RDPS_GeopotentialHeight_IsbL-0275_RLatLon0.09_PT046H.grib2 2026-05-06 02:53 266K
20260506T00Z_MSC_RDPS_GeopotentialHeight_IsbL-0300_RLatLon0.09_PT046H.grib2 2026-05-06 02:53 235K
20260506T00Z_MSC_RDPS_GeopotentialHeight_IsbL-0350_RLatLon0.09_PT046H.grib2 2026-05-06 02:53 231K
20260506T00Z_MSC_RDPS_GeopotentialHeight_IsbL-0400_RLatLon0.09_PT046H.grib2 2026-05-06 02:53 227K
20260506T00Z_MSC_RDPS_GeopotentialHeight_IsbL-0450_RLatLon0.09_PT046H.grib2 2026-05-06 02:53 294K
20260506T00Z_MSC_RDPS_GeopotentialHeight_IsbL-0500_RLatLon0.09_PT046H.grib2 2026-05-06 02:53 290K
20260506T00Z_MSC_RDPS_GeopotentialHeight_IsbL-0550_RLatLon0.09_PT046H.grib2 2026-05-06 02:53 286K
20260506T00Z_MSC_RDPS_GeopotentialHeight_IsbL-0600_RLatLon0.09_PT046H.grib2 2026-05-06 02:53 256K
20260506T00Z_MSC_RDPS_GeopotentialHeight_IsbL-0650_RLatLon0.09_PT046H.grib2 2026-05-06 02:53 254K
20260506T00Z_MSC_RDPS_GeopotentialHeight_IsbL-0700_RLatLon0.09_PT046H.grib2 2026-05-06 02:53 335K
20260506T00Z_MSC_RDPS_GeopotentialHeight_IsbL-0750_RLatLon0.09_PT046H.grib2 2026-05-06 02:53 336K
20260506T00Z_MSC_RDPS_GeopotentialHeight_IsbL-0800_RLatLon0.09_PT046H.grib2 2026-05-06 02:53 374K
20260506T00Z_MSC_RDPS_GeopotentialHeight_IsbL-0850_RLatLon0.09_PT046H.grib2 2026-05-06 02:53 383K
20260506T00Z_MSC_RDPS_GeopotentialHeight_IsbL-0875_RLatLon0.09_PT046H.grib2 2026-05-06 02:53 387K
20260506T00Z_MSC_RDPS_GeopotentialHeight_IsbL-0900_RLatLon0.09_PT046H.grib2 2026-05-06 02:53 391K
20260506T00Z_MSC_RDPS_GeopotentialHeight_IsbL-0925_RLatLon0.09_PT046H.grib2 2026-05-06 02:53 369K
20260506T00Z_MSC_RDPS_GeopotentialHeight_IsbL-0950_RLatLon0.09_PT046H.grib2 2026-05-06 02:53 372K
20260506T00Z_MSC_RDPS_GeopotentialHeight_IsbL-0970_RLatLon0.09_PT046H.grib2 2026-05-06 02:53 378K
20260506T00Z_MSC_RDPS_GeopotentialHeight_IsbL-0985_RLatLon0.09_PT046H.grib2 2026-05-06 02:53 388K
20260506T00Z_MSC_RDPS_GeopotentialHeight_IsbL-1000_RLatLon0.09_PT046H.grib2 2026-05-06 02:53 402K
20260506T00Z_MSC_RDPS_GeopotentialHeight_IsbL-1015_RLatLon0.09_PT046H.grib2 2026-05-06 02:53 420K
20260506T00Z_MSC_RDPS_HighLowPressure_MSL_RLatLon0.09_PT046H.json 2026-05-06 02:45 23K
20260506T00Z_MSC_RDPS_Humidex_Sfc_RLatLon0.09_PT046H.grib2 2026-05-06 02:53 2.4M
20260506T00Z_MSC_RDPS_IcePellets-Accum1h_Sfc_RLatLon0.09_PT046H.grib2 2026-05-06 02:53 4.0K
20260506T00Z_MSC_RDPS_IcePellets-Accum_Sfc_RLatLon0.09_PT046H.grib2 2026-05-06 02:53 26K
20260506T00Z_MSC_RDPS_KIndex_Sfc_RLatLon0.09_PT046H.grib2 2026-05-06 02:53 2.5M
20260506T00Z_MSC_RDPS_LatentHeatNetFlux_Sfc_RLatLon0.09_PT046H.grib2 2026-05-06 02:53 301K
20260506T00Z_MSC_RDPS_LiftedIndex-MU-VT_IsbL-0500_RLatLon0.09_PT046H.grib2 2026-05-06 02:53 2.4M
20260506T00Z_MSC_RDPS_NetLongwaveRadiationFlux-Accum_Sfc_RLatLon0.09_PT046H.grib2 2026-05-06 02:53 542K
20260506T00Z_MSC_RDPS_NetShortwaveRadiationFlux-Accum_Sfc_RLatLon0.09_PT046H.grib2 2026-05-06 02:53 561K
20260506T00Z_MSC_RDPS_PlanetaryBoundaryLayerHeight_Sfc_RLatLon0.09_PT046H.grib2 2026-05-06 02:53 1.0M
20260506T00Z_MSC_RDPS_Precip-Accum1h_Sfc_RLatLon0.09_PT046H.grib2 2026-05-06 02:53 1.2M
20260506T00Z_MSC_RDPS_Precip-Accum_Sfc_RLatLon0.09_PT046H.grib2 2026-05-06 02:53 2.1M
20260506T00Z_MSC_RDPS_PrecipRate_Sfc_RLatLon0.09_PT046H.grib2 2026-05-06 02:53 174K
20260506T00Z_MSC_RDPS_PrecipType-Instant_Sfc_RLatLon0.09_PT046H.grib2 2026-05-06 02:53 582K
20260506T00Z_MSC_RDPS_Pressure-Trend3h_Sfc_RLatLon0.09_PT046H.grib2 2026-05-06 02:53 1.2M
20260506T00Z_MSC_RDPS_Pressure_MSL_RLatLon0.09_PT046H.grib2 2026-05-06 02:53 437K
20260506T00Z_MSC_RDPS_Pressure_PVU-1.5_RLatLon0.09_PT046H.grib2 2026-05-06 02:53 2.3M
20260506T00Z_MSC_RDPS_Pressure_PVU-1_RLatLon0.09_PT046H.grib2 2026-05-06 02:53 2.4M
20260506T00Z_MSC_RDPS_Pressure_PVU-2_RLatLon0.09_PT046H.grib2 2026-05-06 02:53 2.4M
20260506T00Z_MSC_RDPS_Pressure_Sfc_RLatLon0.09_PT046H.grib2 2026-05-06 02:53 497K
20260506T00Z_MSC_RDPS_RadiativeTemp_Sfc_RLatLon0.09_PT046H.grib2 2026-05-06 02:53 327K
20260506T00Z_MSC_RDPS_Rain-Accum1h_Sfc_RLatLon0.09_PT046H.grib2 2026-05-06 02:53 623K
20260506T00Z_MSC_RDPS_Rain-Accum_Sfc_RLatLon0.09_PT046H.grib2 2026-05-06 02:53 1.7M
20260506T00Z_MSC_RDPS_RelativeHumidity_AGL-2m_RLatLon0.09_PT046H.grib2 2026-05-06 02:53 1.0M
20260506T00Z_MSC_RDPS_RelativeHumidity_IsbL-0010_RLatLon0.09_PT046H.grib2 2026-05-06 02:53 585K
20260506T00Z_MSC_RDPS_RelativeHumidity_IsbL-0020_RLatLon0.09_PT046H.grib2 2026-05-06 02:53 654K
20260506T00Z_MSC_RDPS_RelativeHumidity_IsbL-0030_RLatLon0.09_PT046H.grib2 2026-05-06 02:53 602K
20260506T00Z_MSC_RDPS_RelativeHumidity_IsbL-0050_RLatLon0.09_PT046H.grib2 2026-05-06 02:53 355K
20260506T00Z_MSC_RDPS_RelativeHumidity_IsbL-0100_RLatLon0.09_PT046H.grib2 2026-05-06 02:53 278K
20260506T00Z_MSC_RDPS_RelativeHumidity_IsbL-0150_RLatLon0.09_PT046H.grib2 2026-05-06 02:53 413K
20260506T00Z_MSC_RDPS_RelativeHumidity_IsbL-0175_RLatLon0.09_PT046H.grib2 2026-05-06 02:53 463K
20260506T00Z_MSC_RDPS_RelativeHumidity_IsbL-0200_RLatLon0.09_PT046H.grib2 2026-05-06 02:53 535K
20260506T00Z_MSC_RDPS_RelativeHumidity_IsbL-0225_RLatLon0.09_PT046H.grib2 2026-05-06 02:53 600K
20260506T00Z_MSC_RDPS_RelativeHumidity_IsbL-0250_RLatLon0.09_PT046H.grib2 2026-05-06 02:53 663K
20260506T00Z_MSC_RDPS_RelativeHumidity_IsbL-0275_RLatLon0.09_PT046H.grib2 2026-05-06 02:53 693K
20260506T00Z_MSC_RDPS_RelativeHumidity_IsbL-0300_RLatLon0.09_PT046H.grib2 2026-05-06 02:53 739K
20260506T00Z_MSC_RDPS_RelativeHumidity_IsbL-0350_RLatLon0.09_PT046H.grib2 2026-05-06 02:53 762K
20260506T00Z_MSC_RDPS_RelativeHumidity_IsbL-0400_RLatLon0.09_PT046H.grib2 2026-05-06 02:53 781K
20260506T00Z_MSC_RDPS_RelativeHumidity_IsbL-0450_RLatLon0.09_PT046H.grib2 2026-05-06 02:53 791K
20260506T00Z_MSC_RDPS_RelativeHumidity_IsbL-0500_RLatLon0.09_PT046H.grib2 2026-05-06 02:53 803K
20260506T00Z_MSC_RDPS_RelativeHumidity_IsbL-0550_RLatLon0.09_PT046H.grib2 2026-05-06 02:53 824K
20260506T00Z_MSC_RDPS_RelativeHumidity_IsbL-0600_RLatLon0.09_PT046H.grib2 2026-05-06 02:53 845K
20260506T00Z_MSC_RDPS_RelativeHumidity_IsbL-0650_RLatLon0.09_PT046H.grib2 2026-05-06 02:53 856K
20260506T00Z_MSC_RDPS_RelativeHumidity_IsbL-0700_RLatLon0.09_PT046H.grib2 2026-05-06 02:53 892K
20260506T00Z_MSC_RDPS_RelativeHumidity_IsbL-0750_RLatLon0.09_PT046H.grib2 2026-05-06 02:53 939K
20260506T00Z_MSC_RDPS_RelativeHumidity_IsbL-0800_RLatLon0.09_PT046H.grib2 2026-05-06 02:53 1.0M
20260506T00Z_MSC_RDPS_RelativeHumidity_IsbL-0850_RLatLon0.09_PT046H.grib2 2026-05-06 02:53 1.0M
20260506T00Z_MSC_RDPS_RelativeHumidity_IsbL-0875_RLatLon0.09_PT046H.grib2 2026-05-06 02:53 1.1M
20260506T00Z_MSC_RDPS_RelativeHumidity_IsbL-0900_RLatLon0.09_PT046H.grib2 2026-05-06 02:53 1.1M
20260506T00Z_MSC_RDPS_RelativeHumidity_IsbL-0925_RLatLon0.09_PT046H.grib2 2026-05-06 02:53 1.1M
20260506T00Z_MSC_RDPS_RelativeHumidity_IsbL-0950_RLatLon0.09_PT046H.grib2 2026-05-06 02:53 1.1M
20260506T00Z_MSC_RDPS_RelativeHumidity_IsbL-0970_RLatLon0.09_PT046H.grib2 2026-05-06 02:53 1.1M
20260506T00Z_MSC_RDPS_RelativeHumidity_IsbL-0985_RLatLon0.09_PT046H.grib2 2026-05-06 02:53 1.0M
20260506T00Z_MSC_RDPS_RelativeHumidity_IsbL-1000_RLatLon0.09_PT046H.grib2 2026-05-06 02:53 1.0M
20260506T00Z_MSC_RDPS_RelativeHumidity_IsbL-1015_RLatLon0.09_PT046H.grib2 2026-05-06 02:53 1.0M
20260506T00Z_MSC_RDPS_Runoff-Accum_Sfc_RLatLon0.09_PT046H.grib2 2026-05-06 02:53 53K
20260506T00Z_MSC_RDPS_SWEATIndex_Sfc_RLatLon0.09_PT046H.grib2 2026-05-06 02:53 2.4M
20260506T00Z_MSC_RDPS_SeeingIndex_EAtm_RLatLon0.09_PT046H.grib2 2026-05-06 02:53 1.0M
20260506T00Z_MSC_RDPS_SensibleHeatNetFlux_Sfc_RLatLon0.09_PT046H.grib2 2026-05-06 02:53 346K
20260506T00Z_MSC_RDPS_ShowalterIndex_IsbL-0500_RLatLon0.09_PT046H.grib2 2026-05-06 02:53 2.6M
20260506T00Z_MSC_RDPS_SkyTransparencyIndex_EAtm_RLatLon0.09_PT046H.grib2 2026-05-06 02:53 738K
20260506T00Z_MSC_RDPS_Snow-Accum1h_Sfc_RLatLon0.09_PT046H.grib2 2026-05-06 02:53 427K
20260506T00Z_MSC_RDPS_Snow-Accum_Sfc_RLatLon0.09_PT046H.grib2 2026-05-06 02:53 749K
20260506T00Z_MSC_RDPS_SnowDensity_Sfc_RLatLon0.09_PT046H.grib2 2026-05-06 02:53 175K
20260506T00Z_MSC_RDPS_SnowDepth_Sfc_RLatLon0.09_PT046H.grib2 2026-05-06 02:53 641K
20260506T00Z_MSC_RDPS_SoilTemp_DBS-0to10cm_RLatLon0.09_PT046H.grib2 2026-05-06 02:53 240K
20260506T00Z_MSC_RDPS_SoilTemp_Sfc_RLatLon0.09_PT046H.grib2 2026-05-06 02:53 280K
20260506T00Z_MSC_RDPS_SoilVolumetricIceContent_Sfc_RLatLon0.09_PT046H.grib2 2026-05-06 02:53 148K
20260506T00Z_MSC_RDPS_SoilVolumetricWaterContent_DBS-0to10cm_RLatLon0.09_PT046H.grib2 2026-05-06 02:53 283K
20260506T00Z_MSC_RDPS_SoilVolumetricWaterContent_DBS-0to1cm_RLatLon0.09_PT046H.grib2 2026-05-06 02:53 342K
20260506T00Z_MSC_RDPS_SpecificHumidity_AGL-120m_RLatLon0.09_PT046H.grib2 2026-05-06 02:53 506K
20260506T00Z_MSC_RDPS_SpecificHumidity_AGL-2m_RLatLon0.09_PT046H.grib2 2026-05-06 02:53 678K
20260506T00Z_MSC_RDPS_SpecificHumidity_AGL-40m_RLatLon0.09_PT046H.grib2 2026-05-06 02:53 511K
20260506T00Z_MSC_RDPS_SpecificHumidity_AGL-80m_RLatLon0.09_PT046H.grib2 2026-05-06 02:53 508K
20260506T00Z_MSC_RDPS_SpecificHumidity_IsbL-0001_RLatLon0.09_PT046H.grib2 2026-05-06 02:53 371K
20260506T00Z_MSC_RDPS_SpecificHumidity_IsbL-0005_RLatLon0.09_PT046H.grib2 2026-05-06 02:53 374K
20260506T00Z_MSC_RDPS_SpecificHumidity_IsbL-0010_RLatLon0.09_PT046H.grib2 2026-05-06 02:53 409K
20260506T00Z_MSC_RDPS_SpecificHumidity_IsbL-0020_RLatLon0.09_PT046H.grib2 2026-05-06 02:53 494K
20260506T00Z_MSC_RDPS_SpecificHumidity_IsbL-0030_RLatLon0.09_PT046H.grib2 2026-05-06 02:53 369K
20260506T00Z_MSC_RDPS_SpecificHumidity_IsbL-0050_RLatLon0.09_PT046H.grib2 2026-05-06 02:53 477K
20260506T00Z_MSC_RDPS_SpecificHumidity_IsbL-0100_RLatLon0.09_PT046H.grib2 2026-05-06 02:53 444K
20260506T00Z_MSC_RDPS_SpecificHumidity_IsbL-0150_RLatLon0.09_PT046H.grib2 2026-05-06 02:53 456K
20260506T00Z_MSC_RDPS_SpecificHumidity_IsbL-0175_RLatLon0.09_PT046H.grib2 2026-05-06 02:53 435K
20260506T00Z_MSC_RDPS_SpecificHumidity_IsbL-0200_RLatLon0.09_PT046H.grib2 2026-05-06 02:53 464K
20260506T00Z_MSC_RDPS_SpecificHumidity_IsbL-0225_RLatLon0.09_PT046H.grib2 2026-05-06 02:53 461K
20260506T00Z_MSC_RDPS_SpecificHumidity_IsbL-0250_RLatLon0.09_PT046H.grib2 2026-05-06 02:53 502K
20260506T00Z_MSC_RDPS_SpecificHumidity_IsbL-0275_RLatLon0.09_PT046H.grib2 2026-05-06 02:53 464K
20260506T00Z_MSC_RDPS_SpecificHumidity_IsbL-0300_RLatLon0.09_PT046H.grib2 2026-05-06 02:53 562K
20260506T00Z_MSC_RDPS_SpecificHumidity_IsbL-0350_RLatLon0.09_PT046H.grib2 2026-05-06 02:53 557K
20260506T00Z_MSC_RDPS_SpecificHumidity_IsbL-0400_RLatLon0.09_PT046H.grib2 2026-05-06 02:53 516K
20260506T00Z_MSC_RDPS_SpecificHumidity_IsbL-0450_RLatLon0.09_PT046H.grib2 2026-05-06 02:53 571K
20260506T00Z_MSC_RDPS_SpecificHumidity_IsbL-0500_RLatLon0.09_PT046H.grib2 2026-05-06 02:53 511K
20260506T00Z_MSC_RDPS_SpecificHumidity_IsbL-0550_RLatLon0.09_PT046H.grib2 2026-05-06 02:53 586K
20260506T00Z_MSC_RDPS_SpecificHumidity_IsbL-0600_RLatLon0.09_PT046H.grib2 2026-05-06 02:53 641K
20260506T00Z_MSC_RDPS_SpecificHumidity_IsbL-0650_RLatLon0.09_PT046H.grib2 2026-05-06 02:53 559K
20260506T00Z_MSC_RDPS_SpecificHumidity_IsbL-0700_RLatLon0.09_PT046H.grib2 2026-05-06 02:53 606K
20260506T00Z_MSC_RDPS_SpecificHumidity_IsbL-0750_RLatLon0.09_PT046H.grib2 2026-05-06 02:53 668K
20260506T00Z_MSC_RDPS_SpecificHumidity_IsbL-0800_RLatLon0.09_PT046H.grib2 2026-05-06 02:53 753K
20260506T00Z_MSC_RDPS_SpecificHumidity_IsbL-0850_RLatLon0.09_PT046H.grib2 2026-05-06 02:53 689K
20260506T00Z_MSC_RDPS_SpecificHumidity_IsbL-0875_RLatLon0.09_PT046H.grib2 2026-05-06 02:53 711K
20260506T00Z_MSC_RDPS_SpecificHumidity_IsbL-0900_RLatLon0.09_PT046H.grib2 2026-05-06 02:53 725K
20260506T00Z_MSC_RDPS_SpecificHumidity_IsbL-0925_RLatLon0.09_PT046H.grib2 2026-05-06 02:53 732K
20260506T00Z_MSC_RDPS_SpecificHumidity_IsbL-0950_RLatLon0.09_PT046H.grib2 2026-05-06 02:53 728K
20260506T00Z_MSC_RDPS_SpecificHumidity_IsbL-0970_RLatLon0.09_PT046H.grib2 2026-05-06 02:53 719K
20260506T00Z_MSC_RDPS_SpecificHumidity_IsbL-0985_RLatLon0.09_PT046H.grib2 2026-05-06 02:53 711K
20260506T00Z_MSC_RDPS_SpecificHumidity_IsbL-1000_RLatLon0.09_PT046H.grib2 2026-05-06 02:53 704K
20260506T00Z_MSC_RDPS_SpecificHumidity_IsbL-1015_RLatLon0.09_PT046H.grib2 2026-05-06 02:53 692K
20260506T00Z_MSC_RDPS_SpecificHumidity_Sfc_RLatLon0.09_PT046H.grib2 2026-05-06 02:53 354K
20260506T00Z_MSC_RDPS_StormRelativeHelicity_EtaL-10000_RLatLon0.09_PT046H.grib2 2026-05-06 02:53 1.2M
20260506T00Z_MSC_RDPS_StormSeverityIndex_EtaL-10000_RLatLon0.09_PT046H.grib2 2026-05-06 02:53 1.2M
20260506T00Z_MSC_RDPS_Thickness_IsbL-0850to0700_RLatLon0.09_PT046H.grib2 2026-05-06 02:53 174K
20260506T00Z_MSC_RDPS_Thickness_IsbL-1000to0500_RLatLon0.09_PT046H.grib2 2026-05-06 02:53 194K
20260506T00Z_MSC_RDPS_Thickness_IsbL-1000to0850_RLatLon0.09_PT046H.grib2 2026-05-06 02:53 184K
20260506T00Z_MSC_RDPS_TotalCloudCover_Sfc_RLatLon0.09_PT046H.grib2 2026-05-06 02:53 661K
20260506T00Z_MSC_RDPS_TotalTotalsIndex_Sfc_RLatLon0.09_PT046H.grib2 2026-05-06 02:53 2.4M
20260506T00Z_MSC_RDPS_UVIndex-ClearSky_Sfc_RLatLon0.09_PT046H.grib2 2026-05-06 02:53 180K
20260506T00Z_MSC_RDPS_UVIndex_Sfc_RLatLon0.09_PT046H.grib2 2026-05-06 02:53 421K
20260506T00Z_MSC_RDPS_UpwardLongwaveRadiationFlux_NTAtm_RLatLon0.09_PT046H.grib2 2026-05-06 02:53 383K
20260506T00Z_MSC_RDPS_UpwardShortwaveRadiationFlux_NTAtm_RLatLon0.09_PT046H.grib2 2026-05-06 02:53 460K
20260506T00Z_MSC_RDPS_VerticalVelocity_IsbL-0250_RLatLon0.09_PT046H.grib2 2026-05-06 02:53 576K
20260506T00Z_MSC_RDPS_VerticalVelocity_IsbL-0500_RLatLon0.09_PT046H.grib2 2026-05-06 02:53 535K
20260506T00Z_MSC_RDPS_VerticalVelocity_IsbL-0700_RLatLon0.09_PT046H.grib2 2026-05-06 02:53 592K
20260506T00Z_MSC_RDPS_VerticalVelocity_IsbL-0850_RLatLon0.09_PT046H.grib2 2026-05-06 02:53 691K
20260506T00Z_MSC_RDPS_VerticalWindShear_EtaL-6500_RLatLon0.09_PT046H.grib2 2026-05-06 02:53 1.2M
20260506T00Z_MSC_RDPS_WindChill_Sfc_RLatLon0.09_PT046H.grib2 2026-05-06 02:53 1.2M
20260506T00Z_MSC_RDPS_WindDir_AGL-10m_RLatLon0.09_PT046H.grib2 2026-05-06 02:53 1.0M
20260506T00Z_MSC_RDPS_WindDir_AGL-120m_RLatLon0.09_PT046H.grib2 2026-05-06 02:53 620K
20260506T00Z_MSC_RDPS_WindDir_AGL-40m_RLatLon0.09_PT046H.grib2 2026-05-06 02:53 642K
20260506T00Z_MSC_RDPS_WindDir_AGL-80m_RLatLon0.09_PT046H.grib2 2026-05-06 02:53 629K
20260506T00Z_MSC_RDPS_WindDir_IsbL-0001_RLatLon0.09_PT046H.grib2 2026-05-06 02:53 297K
20260506T00Z_MSC_RDPS_WindDir_IsbL-0005_RLatLon0.09_PT046H.grib2 2026-05-06 02:53 372K
20260506T00Z_MSC_RDPS_WindDir_IsbL-0010_RLatLon0.09_PT046H.grib2 2026-05-06 02:53 389K
20260506T00Z_MSC_RDPS_WindDir_IsbL-0020_RLatLon0.09_PT046H.grib2 2026-05-06 02:53 415K
20260506T00Z_MSC_RDPS_WindDir_IsbL-0030_RLatLon0.09_PT046H.grib2 2026-05-06 02:53 407K
20260506T00Z_MSC_RDPS_WindDir_IsbL-0050_RLatLon0.09_PT046H.grib2 2026-05-06 02:53 439K
20260506T00Z_MSC_RDPS_WindDir_IsbL-0100_RLatLon0.09_PT046H.grib2 2026-05-06 02:53 411K
20260506T00Z_MSC_RDPS_WindDir_IsbL-0150_RLatLon0.09_PT046H.grib2 2026-05-06 02:53 420K
20260506T00Z_MSC_RDPS_WindDir_IsbL-0175_RLatLon0.09_PT046H.grib2 2026-05-06 02:53 439K
20260506T00Z_MSC_RDPS_WindDir_IsbL-0200_RLatLon0.09_PT046H.grib2 2026-05-06 02:53 454K
20260506T00Z_MSC_RDPS_WindDir_IsbL-0225_RLatLon0.09_PT046H.grib2 2026-05-06 02:53 458K
20260506T00Z_MSC_RDPS_WindDir_IsbL-0250_RLatLon0.09_PT046H.grib2 2026-05-06 02:53 451K
20260506T00Z_MSC_RDPS_WindDir_IsbL-0275_RLatLon0.09_PT046H.grib2 2026-05-06 02:53 469K
20260506T00Z_MSC_RDPS_WindDir_IsbL-0300_RLatLon0.09_PT046H.grib2 2026-05-06 02:53 467K
20260506T00Z_MSC_RDPS_WindDir_IsbL-0350_RLatLon0.09_PT046H.grib2 2026-05-06 02:53 490K
20260506T00Z_MSC_RDPS_WindDir_IsbL-0400_RLatLon0.09_PT046H.grib2 2026-05-06 02:53 503K
20260506T00Z_MSC_RDPS_WindDir_IsbL-0450_RLatLon0.09_PT046H.grib2 2026-05-06 02:53 525K
20260506T00Z_MSC_RDPS_WindDir_IsbL-0500_RLatLon0.09_PT046H.grib2 2026-05-06 02:53 551K
20260506T00Z_MSC_RDPS_WindDir_IsbL-0550_RLatLon0.09_PT046H.grib2 2026-05-06 02:53 569K
20260506T00Z_MSC_RDPS_WindDir_IsbL-0600_RLatLon0.09_PT046H.grib2 2026-05-06 02:53 595K
20260506T00Z_MSC_RDPS_WindDir_IsbL-0650_RLatLon0.09_PT046H.grib2 2026-05-06 02:53 638K
20260506T00Z_MSC_RDPS_WindDir_IsbL-0700_RLatLon0.09_PT046H.grib2 2026-05-06 02:53 686K
20260506T00Z_MSC_RDPS_WindDir_IsbL-0750_RLatLon0.09_PT046H.grib2 2026-05-06 02:53 737K
20260506T00Z_MSC_RDPS_WindDir_IsbL-0800_RLatLon0.09_PT046H.grib2 2026-05-06 02:53 803K
20260506T00Z_MSC_RDPS_WindDir_IsbL-0850_RLatLon0.09_PT046H.grib2 2026-05-06 02:53 869K
20260506T00Z_MSC_RDPS_WindDir_IsbL-0875_RLatLon0.09_PT046H.grib2 2026-05-06 02:53 894K
20260506T00Z_MSC_RDPS_WindDir_IsbL-0900_RLatLon0.09_PT046H.grib2 2026-05-06 02:53 910K
20260506T00Z_MSC_RDPS_WindDir_IsbL-0925_RLatLon0.09_PT046H.grib2 2026-05-06 02:53 924K
20260506T00Z_MSC_RDPS_WindDir_IsbL-0950_RLatLon0.09_PT046H.grib2 2026-05-06 02:53 926K
20260506T00Z_MSC_RDPS_WindDir_IsbL-0970_RLatLon0.09_PT046H.grib2 2026-05-06 02:53 929K
20260506T00Z_MSC_RDPS_WindDir_IsbL-0985_RLatLon0.09_PT046H.grib2 2026-05-06 02:53 937K
20260506T00Z_MSC_RDPS_WindDir_IsbL-1000_RLatLon0.09_PT046H.grib2 2026-05-06 02:53 950K
20260506T00Z_MSC_RDPS_WindDir_IsbL-1015_RLatLon0.09_PT046H.grib2 2026-05-06 02:53 968K
20260506T00Z_MSC_RDPS_WindGust-Max_AGL-10m_RLatLon0.09_PT046H.grib2 2026-05-06 02:53 1.0M
20260506T00Z_MSC_RDPS_WindGust-Min_AGL-10m_RLatLon0.09_PT046H.grib2 2026-05-06 02:53 967K
20260506T00Z_MSC_RDPS_WindGust_AGL-10m_RLatLon0.09_PT046H.grib2 2026-05-06 02:53 1.0M
20260506T00Z_MSC_RDPS_WindSpeed_AGL-10m_RLatLon0.09_PT046H.grib2 2026-05-06 02:53 833K
20260506T00Z_MSC_RDPS_WindSpeed_AGL-120m_RLatLon0.09_PT046H.grib2 2026-05-06 02:53 529K
20260506T00Z_MSC_RDPS_WindSpeed_AGL-40m_RLatLon0.09_PT046H.grib2 2026-05-06 02:53 534K
20260506T00Z_MSC_RDPS_WindSpeed_AGL-80m_RLatLon0.09_PT046H.grib2 2026-05-06 02:53 530K
20260506T00Z_MSC_RDPS_WindSpeed_IsbL-0001_RLatLon0.09_PT046H.grib2 2026-05-06 02:53 336K
20260506T00Z_MSC_RDPS_WindSpeed_IsbL-0005_RLatLon0.09_PT046H.grib2 2026-05-06 02:53 295K
20260506T00Z_MSC_RDPS_WindSpeed_IsbL-0010_RLatLon0.09_PT046H.grib2 2026-05-06 02:53 399K
20260506T00Z_MSC_RDPS_WindSpeed_IsbL-0020_RLatLon0.09_PT046H.grib2 2026-05-06 02:53 422K
20260506T00Z_MSC_RDPS_WindSpeed_IsbL-0030_RLatLon0.09_PT046H.grib2 2026-05-06 02:53 320K
20260506T00Z_MSC_RDPS_WindSpeed_IsbL-0050_RLatLon0.09_PT046H.grib2 2026-05-06 02:53 345K
20260506T00Z_MSC_RDPS_WindSpeed_IsbL-0100_RLatLon0.09_PT046H.grib2 2026-05-06 02:53 430K
20260506T00Z_MSC_RDPS_WindSpeed_IsbL-0150_RLatLon0.09_PT046H.grib2 2026-05-06 02:53 374K
20260506T00Z_MSC_RDPS_WindSpeed_IsbL-0175_RLatLon0.09_PT046H.grib2 2026-05-06 02:53 422K
20260506T00Z_MSC_RDPS_WindSpeed_IsbL-0200_RLatLon0.09_PT046H.grib2 2026-05-06 02:53 439K
20260506T00Z_MSC_RDPS_WindSpeed_IsbL-0225_RLatLon0.09_PT046H.grib2 2026-05-06 02:53 441K
20260506T00Z_MSC_RDPS_WindSpeed_IsbL-0250_RLatLon0.09_PT046H.grib2 2026-05-06 02:53 440K
20260506T00Z_MSC_RDPS_WindSpeed_IsbL-0275_RLatLon0.09_PT046H.grib2 2026-05-06 02:53 456K
20260506T00Z_MSC_RDPS_WindSpeed_IsbL-0300_RLatLon0.09_PT046H.grib2 2026-05-06 02:53 453K
20260506T00Z_MSC_RDPS_WindSpeed_IsbL-0350_RLatLon0.09_PT046H.grib2 2026-05-06 02:53 467K
20260506T00Z_MSC_RDPS_WindSpeed_IsbL-0400_RLatLon0.09_PT046H.grib2 2026-05-06 02:53 455K
20260506T00Z_MSC_RDPS_WindSpeed_IsbL-0450_RLatLon0.09_PT046H.grib2 2026-05-06 02:53 456K
20260506T00Z_MSC_RDPS_WindSpeed_IsbL-0500_RLatLon0.09_PT046H.grib2 2026-05-06 02:53 577K
20260506T00Z_MSC_RDPS_WindSpeed_IsbL-0550_RLatLon0.09_PT046H.grib2 2026-05-06 02:53 581K
20260506T00Z_MSC_RDPS_WindSpeed_IsbL-0600_RLatLon0.09_PT046H.grib2 2026-05-06 02:53 633K
20260506T00Z_MSC_RDPS_WindSpeed_IsbL-0650_RLatLon0.09_PT046H.grib2 2026-05-06 02:53 654K
20260506T00Z_MSC_RDPS_WindSpeed_IsbL-0700_RLatLon0.09_PT046H.grib2 2026-05-06 02:53 681K
20260506T00Z_MSC_RDPS_WindSpeed_IsbL-0750_RLatLon0.09_PT046H.grib2 2026-05-06 02:53 710K
20260506T00Z_MSC_RDPS_WindSpeed_IsbL-0800_RLatLon0.09_PT046H.grib2 2026-05-06 02:53 753K
20260506T00Z_MSC_RDPS_WindSpeed_IsbL-0850_RLatLon0.09_PT046H.grib2 2026-05-06 02:53 811K
20260506T00Z_MSC_RDPS_WindSpeed_IsbL-0875_RLatLon0.09_PT046H.grib2 2026-05-06 02:53 834K
20260506T00Z_MSC_RDPS_WindSpeed_IsbL-0900_RLatLon0.09_PT046H.grib2 2026-05-06 02:53 849K
20260506T00Z_MSC_RDPS_WindSpeed_IsbL-0925_RLatLon0.09_PT046H.grib2 2026-05-06 02:53 861K
20260506T00Z_MSC_RDPS_WindSpeed_IsbL-0950_RLatLon0.09_PT046H.grib2 2026-05-06 02:53 859K
20260506T00Z_MSC_RDPS_WindSpeed_IsbL-0970_RLatLon0.09_PT046H.grib2 2026-05-06 02:53 855K
20260506T00Z_MSC_RDPS_WindSpeed_IsbL-0985_RLatLon0.09_PT046H.grib2 2026-05-06 02:53 850K
20260506T00Z_MSC_RDPS_WindSpeed_IsbL-1000_RLatLon0.09_PT046H.grib2 2026-05-06 02:53 843K
20260506T00Z_MSC_RDPS_WindSpeed_IsbL-1015_RLatLon0.09_PT046H.grib2 2026-05-06 02:53 834K
20260506T00Z_MSC_RDPS_WindU_AGL-10m_RLatLon0.09_PT046H.grib2 2026-05-06 02:53 433K
20260506T00Z_MSC_RDPS_WindU_AGL-120m_RLatLon0.09_PT046H.grib2 2026-05-06 02:53 530K
20260506T00Z_MSC_RDPS_WindU_AGL-40m_RLatLon0.09_PT046H.grib2 2026-05-06 02:53 534K
20260506T00Z_MSC_RDPS_WindU_AGL-80m_RLatLon0.09_PT046H.grib2 2026-05-06 02:53 531K
20260506T00Z_MSC_RDPS_WindU_IsbL-0001_RLatLon0.09_PT046H.grib2 2026-05-06 02:53 246K
20260506T00Z_MSC_RDPS_WindU_IsbL-0005_RLatLon0.09_PT046H.grib2 2026-05-06 02:53 287K
20260506T00Z_MSC_RDPS_WindU_IsbL-0010_RLatLon0.09_PT046H.grib2 2026-05-06 02:53 300K
20260506T00Z_MSC_RDPS_WindU_IsbL-0020_RLatLon0.09_PT046H.grib2 2026-05-06 02:53 318K
20260506T00Z_MSC_RDPS_WindU_IsbL-0030_RLatLon0.09_PT046H.grib2 2026-05-06 02:53 353K
20260506T00Z_MSC_RDPS_WindU_IsbL-0050_RLatLon0.09_PT046H.grib2 2026-05-06 02:53 376K
20260506T00Z_MSC_RDPS_WindU_IsbL-0100_RLatLon0.09_PT046H.grib2 2026-05-06 02:53 330K
20260506T00Z_MSC_RDPS_WindU_IsbL-0150_RLatLon0.09_PT046H.grib2 2026-05-06 02:53 394K
20260506T00Z_MSC_RDPS_WindU_IsbL-0175_RLatLon0.09_PT046H.grib2 2026-05-06 02:53 416K
20260506T00Z_MSC_RDPS_WindU_IsbL-0200_RLatLon0.09_PT046H.grib2 2026-05-06 02:53 431K
20260506T00Z_MSC_RDPS_WindU_IsbL-0225_RLatLon0.09_PT046H.grib2 2026-05-06 02:53 335K
20260506T00Z_MSC_RDPS_WindU_IsbL-0250_RLatLon0.09_PT046H.grib2 2026-05-06 02:53 334K
20260506T00Z_MSC_RDPS_WindU_IsbL-0275_RLatLon0.09_PT046H.grib2 2026-05-06 02:53 346K
20260506T00Z_MSC_RDPS_WindU_IsbL-0300_RLatLon0.09_PT046H.grib2 2026-05-06 02:53 343K
20260506T00Z_MSC_RDPS_WindU_IsbL-0350_RLatLon0.09_PT046H.grib2 2026-05-06 02:53 353K
20260506T00Z_MSC_RDPS_WindU_IsbL-0400_RLatLon0.09_PT046H.grib2 2026-05-06 02:53 459K
20260506T00Z_MSC_RDPS_WindU_IsbL-0450_RLatLon0.09_PT046H.grib2 2026-05-06 02:53 460K
20260506T00Z_MSC_RDPS_WindU_IsbL-0500_RLatLon0.09_PT046H.grib2 2026-05-06 02:53 464K
20260506T00Z_MSC_RDPS_WindU_IsbL-0550_RLatLon0.09_PT046H.grib2 2026-05-06 02:53 469K
20260506T00Z_MSC_RDPS_WindU_IsbL-0600_RLatLon0.09_PT046H.grib2 2026-05-06 02:53 461K
20260506T00Z_MSC_RDPS_WindU_IsbL-0650_RLatLon0.09_PT046H.grib2 2026-05-06 02:53 481K
20260506T00Z_MSC_RDPS_WindU_IsbL-0700_RLatLon0.09_PT046H.grib2 2026-05-06 02:53 505K
20260506T00Z_MSC_RDPS_WindU_IsbL-0750_RLatLon0.09_PT046H.grib2 2026-05-06 02:53 532K
20260506T00Z_MSC_RDPS_WindU_IsbL-0800_RLatLon0.09_PT046H.grib2 2026-05-06 02:53 568K
20260506T00Z_MSC_RDPS_WindU_IsbL-0850_RLatLon0.09_PT046H.grib2 2026-05-06 02:53 753K
20260506T00Z_MSC_RDPS_WindU_IsbL-0875_RLatLon0.09_PT046H.grib2 2026-05-06 02:53 637K
20260506T00Z_MSC_RDPS_WindU_IsbL-0900_RLatLon0.09_PT046H.grib2 2026-05-06 02:53 649K
20260506T00Z_MSC_RDPS_WindU_IsbL-0925_RLatLon0.09_PT046H.grib2 2026-05-06 02:53 798K
20260506T00Z_MSC_RDPS_WindU_IsbL-0950_RLatLon0.09_PT046H.grib2 2026-05-06 02:53 796K
20260506T00Z_MSC_RDPS_WindU_IsbL-0970_RLatLon0.09_PT046H.grib2 2026-05-06 02:53 792K
20260506T00Z_MSC_RDPS_WindU_IsbL-0985_RLatLon0.09_PT046H.grib2 2026-05-06 02:53 789K
20260506T00Z_MSC_RDPS_WindU_IsbL-1000_RLatLon0.09_PT046H.grib2 2026-05-06 02:53 784K
20260506T00Z_MSC_RDPS_WindU_IsbL-1015_RLatLon0.09_PT046H.grib2 2026-05-06 02:53 825K
20260506T00Z_MSC_RDPS_WindV_AGL-10m_RLatLon0.09_PT046H.grib2 2026-05-06 02:53 427K
20260506T00Z_MSC_RDPS_WindV_AGL-120m_RLatLon0.09_PT046H.grib2 2026-05-06 02:53 526K
20260506T00Z_MSC_RDPS_WindV_AGL-40m_RLatLon0.09_PT046H.grib2 2026-05-06 02:53 528K
20260506T00Z_MSC_RDPS_WindV_AGL-80m_RLatLon0.09_PT046H.grib2 2026-05-06 02:53 526K
20260506T00Z_MSC_RDPS_WindV_IsbL-0001_RLatLon0.09_PT046H.grib2 2026-05-06 02:53 246K
20260506T00Z_MSC_RDPS_WindV_IsbL-0005_RLatLon0.09_PT046H.grib2 2026-05-06 02:53 288K
20260506T00Z_MSC_RDPS_WindV_IsbL-0010_RLatLon0.09_PT046H.grib2 2026-05-06 02:53 301K
20260506T00Z_MSC_RDPS_WindV_IsbL-0020_RLatLon0.09_PT046H.grib2 2026-05-06 02:53 319K
20260506T00Z_MSC_RDPS_WindV_IsbL-0030_RLatLon0.09_PT046H.grib2 2026-05-06 02:53 314K
20260506T00Z_MSC_RDPS_WindV_IsbL-0050_RLatLon0.09_PT046H.grib2 2026-05-06 02:53 340K
20260506T00Z_MSC_RDPS_WindV_IsbL-0100_RLatLon0.09_PT046H.grib2 2026-05-06 02:53 421K
20260506T00Z_MSC_RDPS_WindV_IsbL-0150_RLatLon0.09_PT046H.grib2 2026-05-06 02:53 390K
20260506T00Z_MSC_RDPS_WindV_IsbL-0175_RLatLon0.09_PT046H.grib2 2026-05-06 02:53 413K
20260506T00Z_MSC_RDPS_WindV_IsbL-0200_RLatLon0.09_PT046H.grib2 2026-05-06 02:53 334K
20260506T00Z_MSC_RDPS_WindV_IsbL-0225_RLatLon0.09_PT046H.grib2 2026-05-06 02:53 361K
20260506T00Z_MSC_RDPS_WindV_IsbL-0250_RLatLon0.09_PT046H.grib2 2026-05-06 02:53 359K
20260506T00Z_MSC_RDPS_WindV_IsbL-0275_RLatLon0.09_PT046H.grib2 2026-05-06 02:53 370K
20260506T00Z_MSC_RDPS_WindV_IsbL-0300_RLatLon0.09_PT046H.grib2 2026-05-06 02:53 367K
20260506T00Z_MSC_RDPS_WindV_IsbL-0350_RLatLon0.09_PT046H.grib2 2026-05-06 02:53 352K
20260506T00Z_MSC_RDPS_WindV_IsbL-0400_RLatLon0.09_PT046H.grib2 2026-05-06 02:53 356K
20260506T00Z_MSC_RDPS_WindV_IsbL-0450_RLatLon0.09_PT046H.grib2 2026-05-06 02:53 459K
20260506T00Z_MSC_RDPS_WindV_IsbL-0500_RLatLon0.09_PT046H.grib2 2026-05-06 02:53 464K
20260506T00Z_MSC_RDPS_WindV_IsbL-0550_RLatLon0.09_PT046H.grib2 2026-05-06 02:53 467K
20260506T00Z_MSC_RDPS_WindV_IsbL-0600_RLatLon0.09_PT046H.grib2 2026-05-06 02:53 476K
20260506T00Z_MSC_RDPS_WindV_IsbL-0650_RLatLon0.09_PT046H.grib2 2026-05-06 02:53 494K
20260506T00Z_MSC_RDPS_WindV_IsbL-0700_RLatLon0.09_PT046H.grib2 2026-05-06 02:53 500K
20260506T00Z_MSC_RDPS_WindV_IsbL-0750_RLatLon0.09_PT046H.grib2 2026-05-06 02:53 525K
20260506T00Z_MSC_RDPS_WindV_IsbL-0800_RLatLon0.09_PT046H.grib2 2026-05-06 02:53 562K
20260506T00Z_MSC_RDPS_WindV_IsbL-0850_RLatLon0.09_PT046H.grib2 2026-05-06 02:53 612K
20260506T00Z_MSC_RDPS_WindV_IsbL-0875_RLatLon0.09_PT046H.grib2 2026-05-06 02:53 633K
20260506T00Z_MSC_RDPS_WindV_IsbL-0900_RLatLon0.09_PT046H.grib2 2026-05-06 02:53 646K
20260506T00Z_MSC_RDPS_WindV_IsbL-0925_RLatLon0.09_PT046H.grib2 2026-05-06 02:53 656K
20260506T00Z_MSC_RDPS_WindV_IsbL-0950_RLatLon0.09_PT046H.grib2 2026-05-06 02:53 654K
20260506T00Z_MSC_RDPS_WindV_IsbL-0970_RLatLon0.09_PT046H.grib2 2026-05-06 02:53 790K
20260506T00Z_MSC_RDPS_WindV_IsbL-0985_RLatLon0.09_PT046H.grib2 2026-05-06 02:53 784K
20260506T00Z_MSC_RDPS_WindV_IsbL-1000_RLatLon0.09_PT046H.grib2 2026-05-06 02:53 824K
20260506T00Z_MSC_RDPS_WindV_IsbL-1015_RLatLon0.09_PT046H.grib2 2026-05-06 02:53 817K